Location: Menands
(42.6920°N, 73.7246°W)
Time: 02:26:46
(UTC+00:00)

Cosmos 1538 Rocket - Pass Details

Date: 18 February 2026
Orbit: 748 x 788 km, 74.0° (Epoch: 5 March)

Event Time Altitude Azimuth Distance (km) Brightness Sun altitude
Rises 23:46:41 0° 184° (S) 3,258 7.3 -14.6°
Reaches altitude 10° 23:49:06 10° 179° (S) 2,337 6.5 -15.0°
Maximum altitude 23:54:14 51° 104° (ESE) 983 4.2 -16.0°
Drops below altitude 10° 23:59:25 10° 30° (NNE) 2,356 6.2 -16.9°
Sets 00:01:52 0° 25° (NNE) 3,288 7.0 -17.4°
